Wind_Speed
4 3 1 2 2 3 6 7 8 6 5 6 5 4 2 2 1 4 6 5 7 4 3 2 3 4 4 3 1 0 1 3 4 4 2 2 3 4 4 3 4 5 5 6 7 8 8 8 9
4 4 3 1 3 6 5 9 8 8 7 6 3 2 1 3 5 7 5 4 7 5 5 5 4 3 1 1 2 3 1 2 4 3 4 3 2 2 3 3 4 5 5 6 7 8 9 8 9
5 4 4 3 5 3 3 10 10 10 9 7 4 5 4 4 4 3 5 5 7 7 8 9 8 8 6 6 5 6 4 2 7 10 7 4 3 3 3 4 4 4 4 5 6 7 7 7 8
4 5 5 6 5 6 7 11 11 10 10 9 8 4 6 7 8 8 6 9 10 11 10 10 10 10 9 9 8 8 7 5 5 7 7 7 6 6 5 5 4 4 4 4 5 6 6 7 9
5 5 7 5 6 8 10 11 11 11 11 10 9 6 6 9 8 8 7 7 9 11 12 12 13 12 11 11 11 11 10 9 7 5 6 7 7 6 7 8 7 6 6 6 7 7 7 7 9
5 5 5 6 6 9 10 12 11 12 14 15 12 11 8 10 8 6 6 8 9 9 10 12 13 13 13 13 14 14 13 13 11 10 8 7 8 9 8 9 8 8 6 6 7 7 8 8 8
7 8 8 9 8 7 11 12 11 11 12 15 15 7 9 12 10 9 8 10 10 11 10 11 13 15 15 15 15 15 16 16 15 14 13 12 11 10 11 10 11 9 9 7 8 8 8 9 8
9 9 10 9 6 6 11 13 14 13 15 15 14 6 7 11 11 13 13 11 11 11 10 11 13 13 13 14 15 15 16 17 17 17 17 15 14 12 11 12 12 11 10 10 9 8 8 9 8
10 10 8 8 7 8 9 12 14 15 17 18 17 17 20 18 17 16 13 11 11 12 11 11 10 11 12 13 14 17 19 19 19 19 18 18 17 15 14 13 13 13 12 12 10 9 9 8 8
12 11 9 10 11 11 12 12 15 15 16 16 16 19 22 22 21 20 18 15 13 13 13 14 16 16 17 18 18 18 19 20 21 21 20 19 19 18 16 15 15 14 14 13 12 10 10 10 10
18 14 14 14 16 15 14 16 16 18 20 18 22 24 27 26 25 25 23 20 18 17 17 17 18 16 17 17 17 18 20 21 21 22 21 20 20 19 19 18 17 16 15 15 14 12 12 11 12
18 16 16 16 18 18 18 20 19 21 20 24 23 23 22 24 27 28 25 26 23 22 22 20 19 17 18 16 14 16 18 19 21 21 23 23 23 22 20 18 18 16 16 16 14 14 13 12 12
18 20 18 19 18 17 20 19 23 21 21 23 26 24 21 20 22 26 24 23 26 27 28 25 22 20 20 18 17 16 17 16 18 21 22 22 21 21 20 18 17 18 18 16 15 14 13 12 13
22 23 23 23 22 23 21 20 21 22 22 23 22 19 20 19 20 20 23 23 24 26 30 31 29 27 25 20 19 17 18 14 14 17 20 22 21 21 20 17 18 18 17 16 13 13 14 13 15
18 21 20 21 24 26 23 22 16 17 16 18 19 20 21 20 20 19 20 22 23 24 28 33 31 28 28 25 22 19 19 16 14 15 17 19 20 19 18 18 18 18 15 14 14 15 16 15 19
24 25 14 11 13 20 24 21 16 18 20 22 21 19 25 24 23 23 23 23 24 25 26 27 30 33 30 28 26 22 21 19 18 15 14 17 19 19 19 17 17 12 17 16 17 19 20 17 17
16 17 19 17 18 20 21 22 20 26 27 25 21 22 22 23 27 29 27 25 26 27 25 26 29 31 31 30 30 28 23 23 21 17 14 17 20 19 21 21 19 19 19 18 18 17 16 16 16
17 22 22 20 16 22 28 31 26 22 19 18 20 20 21 21 23 29 32 33 31 31 30 29 30 31 31 32 32 33 31 26 25 20 16 16 20 21 22 20 19 19 17 15 15 14 15 16 18
25 24 28 26 23 26 23 24 23 21 18 20 23 19 19 21 22 25 28 30 33 36 37 33 32 25 30 34 36 36 32 29 26 21 19 16 18 20 19 19 16 16 15 14 13 14 16 17 18
20 22 26 24 18 18 23 25 24 17 13 12 16 16 15 17 21 24 27 30 30 28 31 38 37 33 28 30 35 38 33 28 24 25 21 17 17 19 19 17 16 15 13 13 14 15 16 18 19
19 22 24 24 20 23 22 25 8 10 15 17 14 11 18 19 20 21 24 25 26 26 27 29 37 35 33 31 34 39 37 31 27 24 26 18 18 18 17 16 15 14 14 15 16 17 19 20 20
21 18 18 20 16 20 10 14 20 21 17 16 17 19 25 20 13 10 12 16 21 24 28 29 33 40 39 36 34 38 37 33 28 25 24 18 18 18 17 16 15 15 14 15 16 18 18 16 17
19 24 25 21 21 22 29 15 26 12 15 20 21 27 24 17 13 11 8 9 10 16 21 25 22 31 37 34 35 35 37 34 32 25 26 22 22 20 19 17 15 14 14 15 17 17 16 13 12
26 27 22 20 21 21 34 29 27 24 21 22 18 18 16 15 15 15 13 13 10 12 11 20 20 22 24 34 30 28 36 41 35 28 28 25 23 21 19 17 15 14 15 16 16 15 14 11 11
30 20 16 14 12 16 16 13 23 22 21 18 18 16 18 19 21 21 22 18 19 12 7 10 19 15 22 25 30 30 21 36 35 32 31 27 24 21 19 17 16 15 14 15 14 13 11 10 9
17 19 21 12 13 15 6 9 7 20 27 17 13 13 17 22 24 24 25 23 18 19 8 2 11 22 22 34 38 38 31 28 37 38 37 37 25 21 21 18 16 14 14 13 12 10 9 7 7
14 19 22 18 18 10 19 17 19 20 16 14 14 17 20 22 25 26 26 27 24 17 18 3 8 8 17 23 31 39 39 31 35 42 36 37 27 24 18 18 16 14 13 12 10 10 9 7 3
25 19 9 8 6 6 11 18 14 6 11 18 19 23 26 28 27 31 31 28 26 20 20 14 19 13 14 17 20 24 33 34 37 40 42 23 23 23 16 17 15 13 12 11 11 10 8 5 6
13 15 11 9 6 4 4 6 6 4 11 21 27 33 38 41 42 40 36 27 21 21 20 26 27 16 8 9 14 18 24 29 32 33 37 36 22 24 18 16 14 13 11 12 11 11 9 8 7
16 14 14 9 5 7 3 12 16 17 16 23 30 40 43 41 40 41 38 32 27 22 20 19 18 20 14 7 10 15 17 21 25 19 23 24 25 21 17 15 14 13 12 13 12 11 11 10 9
Wind_Direction
290 264 212 166 160 193 188 184 171 169 141 152 132 124 106 75 334 281 316 291 229 234 197 354 11 16 10 4 318 143 37 14 353 329 319 333 349 344 333 329 330 339 338 352 2 11 21 25 25
271 254 249 240 199 208 191 190 174 186 194 197 204 215 286 271 273 277 302 281 221 240 246 247 242 268 309 245 236 237 246 356 2 323 290 288 300 303 311 303 309 318 332 344 357 5 11 16 17
283 270 253 238 238 235 197 189 194 201 207 217 227 238 261 296 314 287 257 250 247 223 247 252 246 248 243 230 226 227 225 312 343 355 335 307 290 284 286 292 294 297 316 334 347 359 3 3 8
269 265 259 230 233 230 208 214 216 220 231 240 253 272 275 300 297 283 260 239 243 250 255 254 252 254 254 249 241 241 243 259 313 342 352 329 316 311 310 307 297 292 298 316 329 345 349 353 360
272 260 255 259 248 233 218 219 217 223 243 253 255 263 280 293 292 291 281 260 250 250 251 249 249 247 248 247 246 243 245 247 261 285 314 326 330 308 299 295 304 307 306 316 324 335 337 343 349
271 267 274 259 250 246 239 235 232 233 241 251 260 267 271 279 275 276 271 271 269 261 259 251 246 245 245 241 239 235 241 246 251 255 269 285 301 305 309 291 286 292 292 302 310 315 312 315 331
261 258 261 268 270 259 239 240 238 238 241 243 254 260 270 272 276 276 282 283 279 280 272 252 247 248 245 241 240 239 238 242 248 253 255 259 266 282 298 306 286 283 289 293 298 296 294 301 313
259 268 276 281 275 246 245 241 244 244 244 248 248 253 241 257 267 276 277 267 273 281 280 255 247 246 248 251 250 247 248 248 248 249 253 258 261 268 281 288 290 275 273 278 284 284 288 291 297
265 257 257 271 275 263 255 250 255 253 255 254 257 259 264 268 272 278 277 260 258 272 276 260 236 257 265 261 259 255 252 252 251 251 252 257 258 260 269 279 277 267 266 268 277 276 275 277 286
269 261 263 268 264 259 264 255 260 265 269 261 266 268 263 267 271 273 272 270 256 252 256 246 251 266 273 269 260 257 255 253 252 251 251 251 254 255 261 270 270 262 261 266 273 273 277 278 280
276 272 275 274 274 277 276 276 270 269 271 272 262 256 265 270 268 270 271 266 260 245 241 243 250 258 268 272 261 256 256 254 252 251 250 249 250 252 258 265 260 257 258 262 268 266 267 273 286
283 283 284 282 281 285 284 280 280 271 281 280 277 274 271 269 269 266 258 261 258 246 234 236 244 252 261 263 259 258 256 256 256 252 248 248 251 253 257 258 255 255 253 259 257 255 259 265 280
278 281 282 281 286 282 280 284 284 289 279 276 284 292 291 282 271 269 266 253 249 245 235 235 239 248 255 257 258 261 258 260 258 252 249 250 250 250 252 252 251 247 249 252 250 249 264 272 275
280 282 282 281 285 286 286 285 285 284 279 285 287 293 298 290 277 267 263 260 253 245 242 238 241 248 248 248 253 260 256 259 258 250 249 248 246 246 246 244 243 246 251 249 245 251 259 267 270
285 288 286 289 287 284 288 297 295 286 287 279 278 292 283 280 277 267 254 248 244 243 243 244 243 246 243 245 245 250 253 254 262 256 248 246 239 240 239 241 249 244 241 242 241 248 264 260 277
292 294 297 284 282 281 290 289 280 291 288 287 290 281 271 269 265 268 268 261 253 248 245 249 251 245 242 239 241 244 245 248 256 262 254 244 240 236 235 235 238 235 241 247 255 261 267 271 278
284 274 281 292 289 292 291 283 281 292 289 294 288 279 274 268 260 260 261 261 250 248 253 256 256 243 240 239 237 242 245 245 248 254 262 250 239 232 227 233 241 253 256 256 258 259 264 273 278
281 281 279 279 288 284 287 282 288 294 290 286 279 278 279 276 269 262 259 258 259 256 252 254 255 246 234 239 234 237 243 243 242 248 257 258 244 236 238 239 240 245 249 250 254 263 270 276 278
271 273 278 282 286 289 288 288 291 302 280 269 273 278 278 276 274 271 270 268 264 257 252 251 247 245 240 236 234 237 240 244 242 242 251 258 247 238 233 238 234 234 237 245 256 265 273 274 276
273 272 277 290 295 288 292 289 296 283 250 272 267 269 275 282 278 281 277 274 270 263 255 246 244 242 241 240 238 241 244 245 242 235 242 254 243 235 232 226 224 232 243 254 267 275 276 277 276
271 269 278 278 285 291 292 295 258 237 276 273 234 269 299 283 276 280 280 281 276 263 255 247 239 238 243 244 234 236 238 235 236 235 238 249 241 229 223 222 228 238 251 265 274 280 281 279 276
273 267 280 277 280 279 267 287 269 279 265 232 232 276 283 265 264 290 287 289 278 267 262 255 243 231 235 240 237 234 239 241 244 244 237 244 232 221 221 225 234 243 255 270 281 283 280 274 272
274 281 281 273 266 274 267 259 286 258 211 235 258 272 264 262 261 279 300 280 310 292 273 264 247 234 232 235 232 233 232 233 238 236 229 234 224 221 220 225 236 250 265 278 284 282 276 261 251
275 274 272 268 266 257 267 260 263 264 243 258 256 253 256 272 281 293 296 289 284 317 291 261 233 229 239 232 222 228 233 230 229 223 226 231 221 216 220 228 241 257 269 281 283 274 263 254 260
267 260 265 250 226 255 273 272 252 255 261 252 251 254 266 285 300 309 309 297 259 275 294 259 219 222 250 212 219 226 239 224 217 219 222 225 220 217 223 231 242 255 269 280 276 266 252 255 262
262 244 242 262 261 277 274 250 246 247 256 257 252 262 273 284 299 307 311 305 284 254 276 6 247 215 215 208 220 217 227 228 214 216 219 207 214 218 226 234 243 254 271 272 264 249 249 251 264
262 250 254 264 260 273 252 257 270 267 247 255 273 281 284 287 288 297 303 302 302 278 247 77 350 239 229 219 220 223 230 227 224 229 242 182 206 217 228 236 242 251 264 262 243 238 231 238 253
243 249 252 233 248 241 253 265 267 220 246 266 274 278 281 284 286 292 292 295 297 297 245 255 313 309 261 237 234 230 232 234 229 237 239 199 207 212 227 236 237 248 253 235 224 227 225 223 208
249 240 239 247 229 271 284 268 148 305 302 303 298 298 300 301 299 294 289 286 283 282 277 239 271 291 259 210 224 230 230 234 235 233 227 237 209 208 225 230 235 245 243 224 219 218 216 213 204
234 240 241 226 184 227 279 266 285 289 305 293 294 295 296 298 300 301 298 292 267 265 267 292 217 269 278 194 191 206 214 219 221 220 239 256 222 208 220 224 233 239 230 219 217 212 218 210 210
Height
3160 3160 3160 3160 3165 3163 3162 3162 3160 3163 3163 3163 3164 3164 3166 3164 3165 3168 3164 3164 3163 3163 3163 3162 3162 3162 3161 3161 3161 3160 3159 3159 3159 3159 3158 3157 3158 3158 3158 3157 3157 3157 3156 3156 3155 3153 3151 3150 3149
3159 3160 3160 3160 3163 3160 3161 3159 3161 3161 3161 3163 3163 3164 3165 3165 3164 3163 3164 3163 3163 3162 3162 3161 3161 3161 3161 3161 3160 3161 3160 3159 3159 3158 3157 3157 3156 3156 3156 3156 3156 3156 3156 3156 3155 3153 3152 3151 3149
3159 3159 3160 3160 3160 3159 3160 3158 3158 3159 3161 3161 3162 3163 3163 3163 3162 3162 3162 3162 3161 3161 3161 3160 3160 3161 3160 3161 3160 3160 3160 3160 3160 3159 3159 3158 3157 3157 3156 3155 3155 3155 3155 3155 3154 3153 3152 3151 3150
3158 3159 3160 3160 3159 3158 3158 3158 3159 3159 3160 3160 3161 3163 3161 3161 3160 3161 3160 3160 3160 3160 3160 3159 3159 3159 3160 3160 3160 3159 3159 3160 3160 3159 3158 3158 3158 3158 3158 3156 3155 3155 3154 3154 3154 3153 3151 3151 3149
3158 3159 3159 3158 3158 3157 3157 3157 3158 3159 3160 3160 3160 3161 3161 3159 3158 3158 3158 3158 3158 3158 3158 3158 3157 3157 3158 3158 3159 3158 3158 3159 3159 3158 3158 3158 3158 3157 3157 3157 3157 3156 3155 3154 3154 3153 3152 3150 3149
3158 3159 3160 3159 3157 3156 3156 3156 3157 3158 3158 3158 3158 3158 3158 3156 3156 3155 3156 3156 3156 3157 3156 3156 3156 3155 3155 3155 3156 3156 3157 3157 3158 3157 3156 3156 3156 3157 3157 3156 3155 3155 3154 3153 3153 3152 3151 3150 3149
3157 3158 3158 3157 3157 3156 3155 3154 3155 3155 3156 3155 3156 3158 3156 3154 3154 3154 3154 3154 3155 3154 3154 3153 3153 3153 3153 3153 3154 3154 3154 3154 3155 3155 3155 3155 3155 3155 3155 3154 3153 3153 3153 3153 3152 3151 3151 3150 3148
3156 3156 3156 3156 3156 3156 3153 3153 3153 3153 3153 3153 3153 3155 3155 3152 3152 3152 3152 3152 3152 3152 3151 3151 3150 3150 3150 3151 3151 3151 3151 3151 3152 3153 3152 3153 3153 3152 3152 3152 3152 3152 3151 3151 3150 3150 3149 3148 3147
3153 3154 3154 3153 3153 3153 3152 3152 3151 3152 3151 3150 3150 3150 3149 3148 3148 3148 3149 3148 3149 3149 3149 3148 3148 3148 3149 3149 3149 3149 3149 3149 3148 3149 3149 3150 3150 3150 3150 3150 3149 3150 3149 3148 3148 3148 3147 3147 3145
3151 3152 3151 3150 3149 3149 3150 3150 3149 3150 3148 3148 3148 3146 3145 3145 3145 3146 3146 3146 3146 3146 3146 3146 3145 3145 3145 3145 3145 3145 3145 3145 3145 3145 3146 3146 3147 3147 3148 3147 3147 3147 3147 3147 3147 3146 3146 3145 3144
3147 3149 3148 3148 3147 3147 3148 3147 3147 3146 3145 3145 3143 3141 3141 3141 3141 3140 3141 3141 3142 3142 3143 3143 3142 3142 3141 3141 3141 3141 3141 3141 3141 3142 3143 3143 3143 3144 3144 3144 3143 3144 3144 3145 3145 3144 3144 3143 3142
3146 3146 3145 3145 3144 3144 3144 3143 3144 3142 3143 3138 3137 3137 3137 3137 3135 3134 3136 3136 3136 3137 3138 3139 3139 3139 3139 3138 3137 3137 3137 3137 3137 3138 3138 3139 3139 3140 3140 3140 3140 3142 3142 3142 3142 3142 3141 3140 3139
3142 3141 3142 3140 3140 3140 3138 3139 3136 3137 3136 3135 3133 3132 3132 3131 3129 3128 3129 3130 3130 3130 3131 3133 3133 3135 3136 3136 3135 3134 3133 3133 3132 3132 3134 3134 3135 3135 3136 3137 3137 3138 3138 3139 3139 3139 3139 3138 3138
3139 3139 3138 3137 3136 3133 3133 3133 3132 3131 3131 3130 3129 3128 3127 3125 3122 3123 3123 3125 3125 3125 3126 3127 3128 3129 3130 3132 3131 3131 3131 3130 3129 3128 3129 3130 3130 3131 3132 3133 3133 3134 3135 3136 3136 3136 3136 3136 3136
3135 3134 3134 3134 3132 3129 3128 3127 3125 3125 3125 3125 3126 3125 3120 3120 3119 3117 3117 3117 3117 3119 3121 3120 3122 3123 3124 3126 3127 3127 3127 3127 3126 3125 3125 3125 3126 3127 3128 3129 3130 3131 3133 3133 3133 3134 3134 3134 3133
3133 3131 3130 3127 3127 3125 3127 3125 3123 3121 3120 3119 3120 3119 3115 3115 3113 3111 3111 3111 3112 3112 3114 3115 3115 3117 3119 3120 3122 3123 3123 3123 3123 3122 3122 3122 3122 3124 3125 3126 3127 3124 3129 3130 3130 3130 3130 3130 3129
3128 3128 3127 3125 3121 3121 3122 3118 3119 3117 3114 3113 3111 3109 3109 3109 3108 3106 3105 3105 3106 3107 3108 3109 3109 3109 3112 3115 3116 3118 3118 3119 3119 3119 3119 3118 3119 3120 3122 3122 3123 3124 3125 3126 3126 3126 3126 3126 3126
3128 3124 3122 3119 3120 3116 3113 3109 3110 3109 3108 3106 3103 3103 3102 3101 3100 3099 3098 3099 3099 3100 3102 3102 3102 3102 3105 3107 3110 3111 3113 3114 3114 3115 3115 3115 3115 3115 3117 3118 3119 3120 3121 3122 3123 3123 3122 3122 3122
3119 3117 3114 3115 3114 3106 3105 3103 3101 3101 3101 3098 3096 3096 3097 3096 3094 3092 3091 3089 3089 3091 3093 3094 3095 3097 3097 3099 3102 3104 3106 3109 3110 3112 3112 3111 3111 3112 3113 3114 3115 3117 3118 3119 3119 3119 3119 3119 3118
3114 3112 3109 3107 3105 3103 3099 3097 3096 3093 3091 3092 3093 3090 3089 3090 3089 3087 3085 3082 3080 3080 3081 3084 3086 3089 3090 3092 3095 3098 3102 3103 3105 3107 3108 3108 3108 3109 3110 3111 3113 3114 3115 3116 3116 3116 3116 3115 3115
3110 3109 3106 3104 3101 3097 3095 3091 3089 3087 3086 3085 3084 3084 3083 3082 3081 3079 3078 3076 3074 3071 3071 3073 3076 3080 3083 3085 3087 3090 3093 3097 3099 3101 3103 3104 3105 3106 3107 3108 3109 3111 3112 3112 3112 3112 3112 3111 3110
3104 3103 3100 3097 3098 3094 3090 3086 3087 3087 3080 3078 3079 3078 3078 3076 3076 3073 3071 3069 3067 3065 3063 3064 3065 3068 3072 3076 3079 3081 3087 3091 3095 3097 3100 3101 3101 3102 3104 3106 3107 3108 3108 3108 3108 3108 3107 3107 3106
3102 3099 3097 3095 3091 3089 3085 3086 3077 3075 3075 3073 3074 3074 3071 3070 3071 3068 3066 3063 3062 3060 3057 3057 3056 3060 3064 3067 3071 3075 3079 3084 3088 3091 3094 3096 3097 3099 3101 3103 3104 3104 3104 3104 3104 3103 3103 3103 3102
3094 3092 3091 3089 3088 3080 3076 3078 3070 3073 3068 3066 3068 3067 3066 3066 3065 3064 3061 3059 3058 3056 3054 3053 3052 3055 3057 3060 3065 3068 3072 3074 3079 3085 3088 3091 3093 3096 3098 3099 3100 3100 3100 3100 3100 3099 3099 3098 3098
3087 3088 3084 3078 3074 3067 3068 3067 3065 3064 3062 3062 3062 3062 3061 3060 3058 3058 3058 3055 3053 3053 3051 3049 3047 3046 3050 3054 3058 3062 3063 3067 3072 3079 3083 3086 3090 3092 3094 3095 3096 3096 3096 3095 3095 3095 3095 3095 3095
3081 3082 3079 3069 3060 3059 3064 3060 3058 3057 3056 3057 3055 3055 3055 3056 3054 3051 3051 3051 3048 3049 3047 3044 3044 3043 3046 3047 3052 3055 3060 3062 3065 3068 3073 3075 3083 3087 3088 3090 3091 3092 3091 3091 3091 3092 3092 3092 3092
3077 3075 3073 3069 3067 3064 3057 3055 3056 3054 3054 3054 3051 3051 3050 3050 3048 3047 3046 3044 3045 3044 3044 3039 3041 3041 3043 3044 3047 3051 3053 3056 3058 3062 3045 3043 3073 3080 3083 3084 3086 3087 3087 3087 3088 3089 3090 3090 3091
3069 3070 3068 3067 3065 3057 3049 3048 3049 3049 3051 3050 3048 3045 3043 3041 3042 3039 3040 3038 3039 3039 3037 3037 3039 3042 3039 3039 3042 3045 3047 3050 3053 3054 3060 3056 3068 3073 3076 3079 3081 3082 3083 3084 3085 3087 3088 3089 3090
3063 3064 3064 3062 3062 3055 3050 3045 3046 3047 3048 3045 3041 3038 3035 3032 3030 3031 3031 3032 3032 3033 3034 3034 3037 3039 3037 3036 3039 3041 3043 3045 3048 3050 3053 3057 3063 3070 3072 3074 3076 3077 3079 3081 3082 3085 3086 3088 3090
3055 3058 3058 3058 3056 3058 3057 3049 3046 3046 3043 3038 3035 3033 3030 3027 3023 3020 3019 3022 3025 3026 3028 3028 3028 3036 3037 3033 3034 3036 3038 3041 3043 3047 3050 3054 3056 3064 3067 3069 3071 3073 3076 3078 3080 3082 3085 3086 3088